Location: Aetna Mine
(37.6183°N, 107.6045°W)
Time: 08:23:31
(UTC+00:00)

Daily predictions for brighter satellites

Satellite Brightness Start Highest point End
(mag) Time Altitude Azimuth Time Altitude Azimuth Time Altitude Azimuth
STARLINK-76 3.5 12:04:28 66° NW 12:04:28 66° NW 12:08:33 10° NE
STARLINK 3.5 12:06:05 63° NW 12:06:06 63° NW 12:10:13 10° NE
Lacrosse 5 3.9 12:07:46 13° NNW 12:07:46 13° NNW 12:09:30 10° N
STARLINK-32 3.6 12:07:41 61° NW 12:07:47 61° NW 12:11:54 10° NE
STARLINK-40 3.6 12:09:18 59° NW 12:09:27 59° NW 12:13:33 10° NE
Cosmos 2100 Rocket 3.8 12:04:15 10° S 12:10:25 76° W 12:16:36 10° N
STARLINK-44 3.6 12:10:56 56° NW 12:11:09 57° NW 12:15:14 10° NE
CZ-3B R/B 3.4 12:07:40 12° SW 12:11:52 21° S 12:15:13 10° SE
STARLINK-36 3.6 12:12:31 54° WNW 12:12:48 55° NW 12:16:53 10° NE
Cosmos 372 Rocket 4.1 12:07:47 10° S 12:12:56 75° ESE 12:18:03 10° NNE
Cosmos 158 Rocket 3.9 12:11:59 40° NW 12:13:24 54° WSW 12:18:08 10° S
Meteor 2-20 4.5 12:07:52 10° NNW 12:13:51 54° W 12:19:47 10° SSW
Centaur D AC-28 3.8 12:15:11 21° WSW 12:18:48 41° S 12:40:33 10° ESE
STARLINK-35 3.8 12:18:49 45° WNW 12:19:22 49° NW 12:23:24 10° NE
ALOS 3.1 12:14:59 10° NNE 12:19:33 52° E 12:24:06 10° S
STARLINK-51 3.9 12:20:30 43° WNW 12:21:07 47° NW 12:25:07 10° NE
CZ-2C R/B 3.1 12:17:17 10° N 12:20:43 30° NW 12:20:43 30° NW
CZ-3B R/B 4.0 12:19:34 11° SSW 12:22:22 19° SSE 12:28:22 10° SE
STARLINK-30 3.9 12:22:06 41° WNW 12:22:47 45° NW 12:26:48 10° NE
STARLINK-33 4.0 12:23:40 39° WNW 12:24:25 44° NW 12:28:24 10° NE
STARLINK-50 4.0 12:25:15 38° WNW 12:26:04 43° NW 12:30:03 10° NE
ASTEX 1 3.9 12:21:49 10° SSW 12:26:20 36° W 12:30:27 12° NNW
Cosmos 1802 Rocket 4.0 12:21:49 10° SSW 12:28:14 73° W 12:34:39 10° N
STARLINK-26 4.2 12:28:40 33° WNW 12:29:20 35° NW 12:33:08 10° NNE
STARLINK-56 4.1 12:28:25 35° WNW 12:29:22 40° NW 12:33:18 10° NE
Starlink (trailer) 4.1 12:30:15 33° WNW 12:31:17 39° NW 12:35:11 10° NE
Cosmos 2298 Rocket 4.0 12:27:08 10° SSW 12:32:23 63° WNW 12:37:40 10° NNE
STARLINK-38 4.2 12:31:40 32° WNW 12:32:46 38° NW 12:36:39 10° NE
STARLINK-65 4.2 12:33:19 30° WNW 12:34:29 37° NW 12:38:21 10° NE
SJ-12 3.8 12:31:36 10° N 12:35:46 77° WNW 12:39:53 10° SSW
Abrixas rocket 2.9 12:36:16 31° NNW 12:36:24 31° NNW 12:39:09 10° NE
Cosmos 1408 2.6 12:33:19 10° SSW 12:36:56 55° W 12:40:33 10° N
PAYLOAD B 4.2 12:32:33 10° NNE 12:38:05 87° ESE 12:43:35 10° SSW
PSLV R/B 4.1 12:35:37 10° N 12:39:20 43° WNW 12:43:06 10° SW
Meteor PRIRODA 4.3 12:36:03 10° N 12:39:20 32° WNW 12:42:35 10° SW
STARLINK-69 4.4 12:38:06 27° WNW 12:39:27 34° NNW 12:43:14 10° NNE
Okean O Rocket 1.8 12:36:12 10° NNE 12:40:32 72° ESE 12:44:52 10° S
STARLINK-66 4.4 12:39:44 26° WNW 12:41:11 33° NNW 12:44:58 10° NNE
Cosmos 2173 Rocket 4.2 12:36:26 10° SSW 12:42:22 44° WNW 12:48:17 10° N
STARLINK-41 4.4 12:41:14 25° WNW 12:42:44 32° NNW 12:46:31 10° NNE
OAO 2 Rocket 4.0 12:40:46 20° W 12:44:03 45° SSW 12:48:51 10° SE
STARLINK-64 4.5 12:42:54 24° WNW 12:44:28 31° NNW 12:48:11 10° NNE
Cosmos 2061 Rocket 4.0 12:38:30 10° SSW 12:44:40 61° W 12:50:49 10° N
Cosmos 1437 2.5 12:41:55 10° S 12:44:56 88° WNW 12:48:00 10° N
Cosmos 1151 Rocket 3.0 12:43:56 10° NNW 12:48:16 65° W 12:52:32 10° S
CZ-4B DEB 4.2 12:43:48 10° N 12:49:14 65° WNW 12:54:39 10° SSW
SKYMED 2 3.7 12:46:59 10° S 12:51:12 53° W 12:55:27 10° NNW
Cosmos 1328 Rocket 3.7 12:49:55 10° NNW 12:54:06 50° W 12:58:15 10° SSW
Cosmos 2233 Rocket 4.2 12:50:02 10° S 12:56:16 78° E 13:02:35 10° N
ATLAS CENTAUR R/B 2.5 12:52:33 10° WSW 12:56:58 32° NW 13:01:17 10° NNE
Cosmos 1515 Rocket 3.4 12:52:40 10° N 12:57:00 81° W 13:01:20 10° S
Cosmos 1743 Rocket 3.4 12:53:17 10° S 12:57:36 78° W 13:01:56 10° N
Cosmos 1933 3.3 12:56:09 10° N 13:00:11 87° W 13:04:11 10° S
Cosmos 1864 Rocket 4.5 12:54:22 10° SSW 13:00:23 60° W 13:06:30 10° N
NOSS 3-4 (A) 4.0 12:56:45 10° NNW 13:03:58 89° WSW 13:11:51 10° SSE
NOSS 3-4 (C) 4.0 12:56:52 10° NNW 13:04:05 89° WSW 13:11:57 10° SSE
Cosmos 1833 4.2 13:01:43 10° SSW 13:07:15 63° WNW 13:12:51 10° NNE
Lacrosse 5 rocket 3.6 13:06:43 10° N 13:08:00 12° NNE 13:09:18 10° NE
OAO 3 Rocket 3.9 13:04:58 11° W 13:09:24 45° SSW 13:13:57 10° ESE
Shenzhou-11 Module 1.9 13:07:26 15° WNW 13:09:32 60° SSW 13:12:12 10° SE
Cosmos 2346 Rocket 4.5 13:03:41 10° NNW 13:09:38 60° W 13:15:33 10° S
Cosmos 2360 Rocket 2.2 13:06:47 10° NNW 13:12:30 89° WSW 13:18:10 10° SSE
SL-16 R/B 2.9 13:10:19 10° NW 13:15:20 33° WSW 13:20:20 10° SSW
Cosmos 1606 2.8 13:16:43 10° NNW 13:20:27 56° W 13:24:11 10° S
Cosmos 1500 Rocket 3.9 13:16:44 10° SSW 13:21:02 46° W 13:25:20 10° N
Cosmos 2322 Rocket 2.9 13:18:23 10° NW 13:23:25 33° WSW 13:28:26 10° SSW
USA 267 4.1 13:17:21 10° NE 13:23:45 56° SE 13:30:09 10° SSW
BREEZE-M DEB 4.3 13:15:58 10° WNW 13:25:19 58° NNE 13:29:15 10° E
Cosmos 494 Rocket 4.3 13:20:44 10° NNW 13:25:59 71° ENE 13:31:10 10° SSE
Delta 2 Rocket 4.0 13:21:50 10° W 13:26:27 71° S 13:31:42 10° E
COSMOS 2455 3.8 13:22:42 10° NW 13:27:38 27° WSW 13:32:33 10° SSW
Meteor 2-3 Rocket 3.9 13:25:24 10° SSW 13:30:59 53° WNW 13:36:40 10° N
